User: anonymous   Login
Location: Newark
(55.7083°N, 13.1992°E)
Time: 19:59:32
(UTC+00:00)
Language:

Transit 4A - Orbit

View from above orbital plane
View from above orbital plane
View from above satellite
View from above satellite

Ground track
Ground track

The orbit data is extracted from the following two-line orbital elements,

1 00116U 61015A   21023.36660111 -.00000075  00000-0  14478-5 0  9995
2 00116  66.8104  30.6010 0079652 218.8780 140.6555 13.91781872 22421
Epoch (UTC): 23 January 2021 08:47:54
Eccentricity: 0.0079652
inclination: 66.8104°
perigee height: 864 km
apogee height: 980 km
right ascension of ascending node: 30.6010°
argument of perigee: 218.8780°
revolutions per day: 13.91781872
mean anomaly at epoch: 140.6555°
orbit number at epoch: 2242

The dashed part of the orbit path shows where the satellite is in the earth's shadow,  

DLR